Regional Weather Roundup
Issued by NWS Newport/Morehead, NC

Current Version | Previous Version | Text Only | Print | Product List | Glossary Off
Versions: 1 2 3 4 5 6 7 8 9 10 11 12 13 14 15 16 17 18 19 20 21 22 23 24 25 26 27 28 29 30 31 32 33 34 35 36 37 38 39 40 41 42 43 44 45 46 47 48 49 50
000 ASUS42 KMHX 062013 RWRMHX WEATHER ROUNDUP FOR EASTERN NORTH CAROLINA NATIONAL WEATHER SERVICE NEWPORT/MOREHEAD CITY NC 300 PM EST SAT FEB 06 2016 NOTE: "FAIR" INDICATES FEW OR NO CLOUDS BELOW 12,000 FEET WITH NO SIGNIFICANT WEATHER AND/OR OBSTRUCTIONS TO VISIBILITY NCZ015>017-031-032-045>047-102-103-062100- NORTH COAST CITY SKY/WX TMP DP RH WIND PRES REMARKS EDENTON PTSUNNY 47 26 43 N7 30.33F ELIZABETH CITY CLOUDY 45 26 47 N7 30.34F KITTY HAWK PTCLDY 45 32 60 NE6 30.32F MANTEO PTSUNNY 44 33 65 NE10 30.34F $$ NCZ045>047-081-094-103-104-062100- CENTRAL COAST CITY SKY/WX TMP DP RH WIND PRES REMARKS FRISCO CLOUDY 47 35 63 NE8G20 30.31F SWANQUARTER N/A 46 N/A N/A NE7G13 30.30S $$ NCZ095-097-098-100-101-062100- SOUTHERN COAST CITY SKY/WX TMP DP RH WIND PRES REMARKS BEAUFORT CLOUDY 45 31 58 NE10 30.30F CEDAR ISLAND N/A 45 N/A N/A NE14 30.36S JACKSONVILLE CLOUDY 50 24 36 N9 30.29F PINEY ISLAND CLOUDY N/A N/A N/A MISG 30.31F WILMINGTON CLOUDY 52 26 36 N8 30.28F $$ NCZ011>013-027>030-043-044-078>080-089-090>093-098-062100- COASTAL PLAIN CITY SKY/WX TMP DP RH WIND PRES REMARKS AHOSKIE SUNNY 44 23 43 N8 30.33F CLINTON SUNNY 49 24 37 NE5 30.31F ELIZABETHTOWN PTSUNNY 50 20 31 NE3 30.30F GOLDSBORO SUNNY 50 23 34 NE8 30.29F GREENVILLE SUNNY 46 25 42 E6 30.32F HAVELOCK CLOUDY 48 32 53 NE10 30.31F KENANSVILLE N/A 47 20 33 CALM 30.32F KINSTON SUNNY 48 25 40 N8 30.32F NEW BERN PTSUNNY 49 27 42 NE9 30.31F RICHLANDS CLOUDY 48 21 34 N6 30.31S ROCKY MOUNT SUNNY 47 20 34 NE7 30.33F WASHINGTON MOSUNNY 47 26 44 CALM 30.32F WHITEVILLE CLOUDY 50 22 33 CALM 30.28F $$ AMZ130-135-150-152-154-156-158-170-250-252-270-ANZ085-086-088-633-658-670-062100- MARINE OBSERVATIONS STATION/POSITION TIME TEMP WIND PRES WAVE SWELL AIR SEA DIR/SP/G HT/PER HT/PER (UTC) (F) (DEG/KT/KT) (MB) (FT/S) (FT/S) CHESAPEAKE LIGHT 2000 40 10/ 7/ 9 1028.1 64 E VA BEACH 1950 44 54 30/ 12/ 14 1027.0 5/ 9 3/ 9 DUCK 1900 41 45 360/ 12/ 12 1027.2 2 E DUCK 1911 45 N/A 3/ 9 2/11 OREGON INLET 1900 44 46 360/ 10/ 14 1027.4 13E OREGON INLT 2000 46 N/A 5/13 3/13 HATTERAS CG 1900 45 53 10/ 13/ 17 1026.7 DIAMOND BUOY 1950 51 72 20/ 17/ 23 1025.6 6/12 5/12 CAPE LOOKOUT NOT AVBL BEAUFORT LAB 1900 46 50 30/ 8/ 14 1025.5 30 SE NEW RVR IN 1908 49 65 1024.2 30 SE NEW RVR IN 1925 65 N/A 5/10 2/11 27 SE WRIGHTSVLE NOT AVBL 5 SE WRIGHTSVLE 1908 47 54 50/ 14/ 17 1025.8 225 S CAPE HAT 1950 61 69 100/ 14/ 17 N/A 9/11 8/11 41 SE CHARLESTON 1950 55 64 40/ 23/ 27 1021.9 7/ 6 3/ 9 $$

USA.gov is the U.S. government's official web portal to all federal, state and local government web resources and services.